1998-067QL

Last updated on Fri Jul 19 2019 00:02:10 GMT+0000 (Coordinated Universal Time)

1 44426U 98067QL 19198.57314923 .00006227 00000-0 11029-3 0 9995 2 44426 51.6400 210.4555 0004382 141.2701 218.8603 15.51696931 2223
UTC large
Height (km)
Speed (km/s)
/
Latitude / Longitude
Inclination (degrees)
Orbital Period (minutes)
Azimuth
Elevation
Range (km)
Doppler Factor

Next 0 passes for location: London (51.5072 / 0.1276)

Sorry there are no passes over London.